Regional Weather Roundup
Issued by NWS

Home | Current Version | Previous Version | Graphics & Text | Print | Product List | Glossary On
Versions: 1 2 3 4 5 6 7 8 9 10 11 12 13 14 15 16 17 18 19 20 21 22 23 24 25 26 27 28 29 30 31 32 33 34 35 36 37 38 39 40 41 42 43 44 45 46 47 48 49 50
000
ASUS45 KABQ 271601
RWRNM
NEW MEXICO REGIONAL WEATHER ROUNDUP
NATIONAL WEATHER SERVICE ALBUQUERQUE NM
1000 AM MDT WED JUL 27 2016

NOTE: "FAIR" MEANS FEW OR NO CLOUDS BELOW 12,000 FEET AGL WITH NO
       SIGNIFICANT WEATHER OR OBSTRUCTIONS TO VISION.

      THIS PRODUCT IS RELEASED AS TWO VERSIONS.  ONE VERSION NEAR
      THE TOP OF THE HOUR CONTAINING PRELIMINARY DATA FROM ALBUQUERQUE
      AND OTHER STATIONS.  A FINAL VERSION WITH ADDITIONAL DATA IS
      ISSUED ABOUT 10 MINUTES AFTER THE HOUR.

NMZ501-503-504-510>518-271700-
NORTHWEST PLATEAU/NORTHCENTRAL MOUNTAINS

CITY           SKY/WX    TMP DP  RH WIND       PRES   REMARKS
FARMINGTON     FAIR      76  50  40 E6        30.25R
LOS ALAMOS       N/A     71  48  44 NE6       30.38S
SANTA FE       FAIR      79  51  37 N8        30.30F
TAOS           FAIR      73  43  33 NW3       30.38F
ANGEL FIRE     FAIR      64  51  61 CALM      30.46F

$$
NMZ402-403-502-505>509-271700-
WESTCENTRAL MOUNTAINS/SOUTHWEST MOUNTAINS

CITY           SKY/WX    TMP DP  RH WIND       PRES   REMARKS
GALLUP         FAIR      77  51  40 VRB5      30.30F
GRANTS         FAIR      74  50  43 CALM      30.34F
SILVER CITY    FAIR      77  56  48 CALM      30.24S

$$
NMZ407-409-411-412-271700-
SOUTHERN DESERTS

CITY           SKY/WX    TMP DP  RH WIND       PRES   REMARKS
LORDSBURG      FAIR      81  63  54 E3        30.15S
DEMING         FAIR      79  63  57 S5        30.17R
LAS CRUCES     PTSUNNY   75  64  66 E5        30.19S
HOLLOMAN AFB   FAIR      77  63  62 E5        30.15S
ALAMOGORDO     PTSUNNY   73  64  73 SE3       30.18F
T OR C         FAIR      79  57  46 CALM      30.20S

$$
NMZ519>523-271700-
CENTRAL VALLEYS/CENTRAL HIGHLANDS

CITY           SKY/WX    TMP DP  RH WIND       PRES   REMARKS
ALBUQUERQUE    FAIR      79  58  48 VRB3      30.25S
DOUBLE EAGLE   MOSUNNY   75  55  50 CALM      30.29F
MORIARTY ARPT  FAIR      76  53  45 NE5       30.32S
CLINES CORNERS FAIR      73  50  44 CALM      30.36S
BELEN          CLOUDY    74  58  57 CALM      30.25S
SOCORRO        FAIR      78  57  47 SE3       30.22F

$$
NMZ524>526-539-540-271700-
SOUTHCENTRAL MOUNTAINS

CITY           SKY/WX    TMP DP  RH WIND       PRES   REMARKS
RUIDOSO          N/A     66  55  68 SE8       30.37R

$$
NMZ527>531-271700-
NORTHEAST HIGHLANDS/NORTHEAST PLAINS

CITY           SKY/WX    TMP DP  RH WIND       PRES   REMARKS
LAS VEGAS      FAIR      77  49  37 W3        30.34S
RATON            N/A    N/A N/A N/A NE6       30.28F
CLAYTON        FAIR      77  64  64 VRB3      30.19S

$$
NMZ532>537-271700-
EASTCENTRAL PLAINS

CITY           SKY/WX    TMP DP  RH WIND       PRES   REMARKS
TUCUMCARI      FAIR      85  52  32 N6        30.13S
CANNON AFB     FAIR      84  61  45 SW5       30.16S
CLOVIS AIRPORT FAIR      84  61  45 S7        30.15S

$$
NMZ028-029-538-271700-
SOUTHEAST PLAINS

CITY           SKY/WX    TMP DP  RH WIND       PRES   REMARKS
ROSWELL        FAIR      84  61  45 NE5       30.12S
ARTESIA        FAIR      82  63  51 SE5       30.12S
CARLSBAD       FAIR      82  64  54 VRB3      30.09S
HOBBS          SUNNY     82  59  44 VRB5      30.14S


$$



USA.gov is the U.S. government's official web portal to all federal, state and local government web resources and services.